7 * 24
多渠道服务支持
ONEWEB-0133是英国OneWeb(一网)项目旗下低轨宽带卫星,于2020年12月18日发射,隶属于OneWeb低地球轨道卫星互联网星座。该星座旨在搭建全球高速互联网络,填补地面网络空白,为偏远地区提供低成本互联网接入服务。本次发射是OneWeb完成破产重组后批量部署的新卫星,帮助OneWeb逐步推进规模组网,目前该卫星已在轨运营,支撑OneWeb向实现全球卫星互联网覆盖的目标推进。
英国
(GB)
| 数据来源 | 国际轨道数据 |
| 星历时间: | 2026-09-11T02:29:05+0800 18小时前 查看轨道信息 |
| 半长轴: | 7591.868km |
| 偏心率: | 0.0001988 |
| 轨道倾角: | 87.900° |
| 近地点辐角 | 96.032° |
| 升交点赤经 | 333.663° |
| 平近点角 | 264.103° |
| 近地点: | 1212.221km |
| 远地点: | 1215.241km |
| 周期: | 109.719分钟 |
| 每日圈数: | 13.124411 |